Location: Newark
(40.7066°N, 111.8219°W)
Time: 07:47:11
(UTC+00:00)

Transit 2A Rocket - Pass Details

Date: 23 November 2019
Orbit: 594 x 909 km, 66.7° (Epoch: 14 December)

Event Time Altitude Azimuth Distance (km) Brightness Sun altitude
Rises 03:02:54 0° 180° (S) 3,106 - -33.5°
Reaches altitude 10° 03:05:36 10° 168° (SSE) 2,136 - -34.1°
Maximum altitude 03:09:37 27° 111° (ESE) 1,259 - -34.8°
Drops below altitude 10° 03:13:25 10° 54° (NE) 2,012 - -35.5°
Sets 03:15:53 0° 42° (NE) 2,890 - -36.0°
